Tracking 19242 objects as of 20-Sep-2018
HD Live streaming from Space Station
objects crossing your sky now

FENGYUN 1C DEB

Track FENGYUN 1C DEB now!
10-day predictions


NORAD ID: 40686
Int'l Code: 1999-025EWS
Perigee: 696.5 km
Apogee: 706.6 km
Inclination: 99.2 °
Period: 98.7 minutes
Semi major axis: 7072 km
RCS: Unknown
Launch date: May 10, 1999
Source: People's Republic of China (PRC)
Launch site: Taiyaun Space Center, China (TSC)

Note: This is SATELLITE DEBRIS
aabbcc
Your satellite tracking list
Your tracking list is empty




NASA's NSSDC Master Catalog

Two Line Element Set (TLE):
1 40686U 99025EWS 18263.10775468  .00003475  00000-0  74167-3 0  9994
2 40686  99.2389 226.8107 0007086 164.1842 195.9577 14.59620488198175
Source of the keplerian elements: AFSPC